Location: Gazon
(48.1318°N, 1.2708°W)
Time: 02:32:40
(UTC+00:00)

USA 186 - Pass Details

Date: 18 September 2020
Orbit: 261 x 425 km, 96.9° (Epoch: 12 October)

Event Time Altitude Azimuth Distance (km) Brightness Sun altitude
Exits shadow 18:49:23 - 126° (SE) 1,624 4.2 -7.3°
Reaches altitude 10° 18:49:53 10° 121° (ESE) 1,449 3.9 -7.4°
Maximum altitude 18:52:22 22° 68° (ENE) 946 3.1 -7.8°
Drops below altitude 10° 18:54:58 10° 15° (NNE) 1,510 4.5 -8.2°
Sets 18:57:16 0° 360° (N) 2,397 5.8 -8.6°
